Regional Weather Roundup
Issued by NWS

Home | Current Version | Previous Version | Text Only | Print | Product List | Glossary On
Versions: 1 2 3 4 5 6 7 8 9 10 11 12 13 14 15 16 17 18 19 20 21 22 23 24 25 26 27 28 29 30 31 32 33 34 35 36 37 38 39 40 41 42 43 44 45 46 47 48 49 50
000
ASUS43 KLSX 261307
RWRMO

WEATHER SUMMARY FOR MISSOURI
NATIONAL WEATHER SERVICE SPRINGFIELD MO
700 AM CST WED NOV 26 2014

NOTE: "FAIR" INDICATES FEW OR NO CLOUDS BELOW 12,000 FEET WITH NO
       SIGNIFICANT WEATHER AND/OR OBSTRUCTIONS TO VISIBILITY.
       CURRENT SKY AND/OR WEATHER CONDITIONS ARE NOT AVAILABLE FOR
       CHILLICOTHE AND FARMINGTON.

MOZ001>031-035>038-043-044-053-054-261400-
...NORTHERN AND WESTERN MISSOURI...

CITY           SKY/WX    TMP DP  RH WIND       PRES   REMARKS
KANSAS CTY INT PTCLDY    36  33  89 W7        29.93R
KANSAS C DTWN  PTCLDY    38  33  82 VRB3      29.94R
LEE`S SUMMIT   CLOUDY    35  33  92 SW6       29.94R
ST JOSEPH      PTCLDY    38  32  79 W13       29.92R WCI  30
CHILLICOTHE      N/A     34  32  92 VRB5      29.92S WCI  30
KIRKSVILLE     LGT SNOW  29  28  96 S9        29.94S VSB 3/4 WCI  20

$$
MOZ066>068-077>081-088>096-101>105-261400-
...SOUTHWEST MISSOURI...

CITY           SKY/WX    TMP DP  RH WIND       PRES   REMARKS
SPRINGFIELD    CLOUDY    37  23  56 S12       29.94S WCI  29
JOPLIN         CLOUDY    41  25  53 NW13      30.00R

$$
MOZ032>034-039>042-045>050-055>058-069>072-261400-
...CENTRAL MISSOURI...

CITY           SKY/WX    TMP DP  RH WIND       PRES   REMARKS
COLUMBIA       CLOUDY    32  22  66 S9        29.97S WCI  24
JEFFERSON CITY CLOUDY    31  22  69 E3        29.99F
ROLLA          CLOUDY    34  20  56 SE13      29.96F WCI  25
SEDALIA        LGT SNOW  35  31  85 SW10      29.96F FOG     WCI  27
WHITEMAN AFB   LGT RAIN  33  32  95 SW10      29.94F WCI  25
OSAGE BEACH    CLOUDY    36  19  51 S6        29.99R

$$
MOZ051-052-059>065-261400-
...EAST CENTRAL MISSOURI...

CITY           SKY/WX    TMP DP  RH WIND       PRES   REMARKS
ST LOUIS INTL  MOCLDY    30  25  81 SE9       30.08S WCI  22
SPIRIT OF STL  CLOUDY    29  24  82 VRB5      30.06F WCI  24
ST CHARLES     MOCLDY    28  27  96 E10       30.08S WCI  19

$$
MOZ072>076-082>087-097>100-106>115-261400-
...SOUTH CENTRAL AND SOUTHEAST MISSOURI...

CITY           SKY/WX    TMP DP  RH WIND       PRES   REMARKS
CAPE GIRARDEAU PTCLDY    27  26  96 E5        30.12F WCI  22
FARMINGTON     PTCLDY    27  25  93 E3        30.07R
POPLAR BLUFF   CLEAR     25  22  88 CALM      30.09F
WEST PLAINS    CLOUDY    33  21  61 S5        29.99F WCI  29

$$



USA.gov is the U.S. government's official web portal to all federal, state and local government web resources and services.